Location: Chèvreville
(49.1099°N, 2.8495°E)
Time: 13:57:03
(UTC+00:00)

NOSS 2-1 (D) - Visible Passes

Search period start: 25 September 2023 00:00
Search period end: 05 October 2023 00:00
Orbit: 404 x 1760 km, 63.3° (Epoch: 06 August)

Date Brightness Start Highest point End Pass type
(mag) Time Alt. Az. Time Alt. Az. Time Alt. Az.
25 Sep 5.5 03:37:48 10° NNW 03:38:04 10° NNW 03:38:20 10° N visible
26 Sep 5.9 02:46:45 11° N 02:46:45 11° N 02:47:08 10° N visible
30 Sep 5.8 04:46:53 10° N 04:48:37 13° NNE 04:50:31 10° NE visible
02 Oct 5.7 04:51:34 10° NNW 04:54:12 18° NNE 04:57:18 10° ENE visible
03 Oct 5.9 03:59:47 10° N 04:01:22 12° NNE 04:03:06 10° NE visible
04 Oct 5.4 04:56:20 10° NNW 04:59:36 27° NE 05:03:43 10° E visible
